Location: Hutchins
(43.0916°N, 93.8811°W)
Time: 05:44:59
(UTC+00:00)

ARIANE 6 FM1 Upper Stage - Visible Passes

Search period start: 11 October 2024 00:00
Search period end: 21 October 2024 00:00
Orbit: 563 x 594 km, 62.0° (Epoch: 10 October)

Date Brightness Start Highest point End Pass type
(mag) Time Alt. Az. Time Alt. Az. Time Alt. Az.
11 Oct 5.5 02:17:23 10° N 02:17:43 11° N 02:17:43 11° N visible
12 Oct 5.4 02:21:15 10° N 02:21:51 12° N 02:21:51 12° N visible
13 Oct 5.4 02:25:14 10° NNW 02:25:58 14° N 02:25:58 14° N visible
14 Oct 5.4 02:29:14 10° NNW 02:30:04 15° NNW 02:30:04 15° NNW visible
15 Oct 4.9 00:55:31 10° N 00:57:17 12° NNE 00:57:55 12° NE visible
15 Oct 5.4 02:33:17 10° NNW 02:34:11 16° NNW 02:34:11 16° NNW visible
16 Oct 4.7 00:59:06 10° N 01:01:46 16° NNE 01:02:02 16° NE visible
16 Oct 5.4 02:37:23 10° NW 02:38:19 16° NW 02:38:19 16° NW visible
17 Oct 4.3 01:02:51 10° NNW 01:06:10 21° NE 01:06:11 21° NE visible
17 Oct 5.5 02:41:32 10° NW 02:42:28 16° NW 02:42:28 16° NW visible
18 Oct 3.8 01:06:40 10° NNW 01:10:22 28° NE 01:10:22 28° NE visible
18 Oct 5.6 02:45:47 10° NW 02:46:39 15° WNW 02:46:39 15° WNW visible
19 Oct 3.3 01:10:31 10° NNW 01:14:36 41° NE 01:14:36 41° NE visible
19 Oct 5.8 02:50:11 10° WNW 02:50:53 13° WNW 02:50:53 13° WNW visible
20 Oct 2.7 01:14:25 10° NNW 01:18:44 62° NE 01:18:54 61° ENE visible
20 Oct 6.0 02:54:53 10° WNW 02:55:12 11° W 02:55:12 11° W visible
